Reflectivity
-3 -20 -14 -20 -20 -20 -20 -20 -20 -20 -20 -20 -20 -20 -20 -20 -20 -20 -20 -12 -20 -20 -20 -20 -20 -15 -20 -20 -20 -20 -20 -20 -20 -20 -20 -20 -20 -20 -20 -20 -20 -20 -20
-20 -6 -18 -20 -20 -20 -20 -20 -20 -20 -20 -20 -20 -20 -20 -20 -20 -20 -20 -20 -20 -20 -20 -3 -20 -10 -20 -20 -20 -20 -20 -20 -20 -20 -20 -20 -20 -20 -20 -20 -20 -20 -20
3 -8 -8 5 -20 -20 -20 -20 -20 -20 -20 -20 -20 -20 -20 -20 -20 -20 -2 -20 -20 -20 -20 -20 -20 -20 -20 -20 -20 -20 -20 -20 -20 -20 -20 -20 -20 -20 -20 -20 -20 -20 -20
-14 6 4 -15 -20 -20 -20 -20 -20 -20 -20 -20 -20 -20 -20 -20 -20 -8 -3 -20 -20 -20 -20 -20 -20 -8 -12 12 -20 -7 2 -17 -20 -20 -20 -20 -20 -20 -20 -20 -20 -20 -20
5 -1 -17 -20 -20 -20 -20 -20 -20 -20 -20 -20 -20 -20 -20 -20 -20 -20 -7 -20 -20 -20 -20 -20 -20 1 11 11 15 4 -20 -20 -20 -20 -20 -20 -20 -20 -20 -20 -20 -20 -18
2 10 -20 -20 -20 -20 -20 -20 -20 -20 -20 -20 -20 -20 -20 -20 -13 -13 6 -20 -20 -20 -20 -20 -20 -16 -20 -10 2 12 10 -0 -20 -20 -20 -20 -20 -20 -20 -20 -20 -20 -20
-7 -20 -20 -20 -20 -20 -20 -20 -20 -20 -20 -20 -20 -20 -20 -20 -10 -5 -0 -20 -20 -20 -20 -19 -20 -20 -20 -20 3 -20 -20 -11 -20 -15 -20 -20 -20 -20 -20 -20 -20 -20 -2
-20 -20 -20 -20 -20 -20 -20 -20 -20 -20 -20 -20 -20 -20 -20 -20 -16 13 6 -20 -20 -20 -20 -20 -20 -20 -14 9 -10 -20 -20 -20 -20 -20 -20 -20 -20 -20 -20 -20 -20 -20 -10
-20 -20 -20 -20 -20 -20 -20 -20 -20 -20 -20 -20 -20 -20 -20 -20 -20 9 5 -20 -20 -20 -20 -20 5 -20 9 6 -20 -20 -20 -20 -18 0 6 10 4 9 8 1 -8 -4 -6
-20 -20 -20 -20 -20 -20 -20 -20 -20 -20 -20 -20 -20 -20 -20 -20 -16 5 9 -18 -9 -20 -20 -20 -20 1 3 4 -9 -19 -20 -20 -20 -20 -20 -8 11 7 4 3 -8 -18 -19
-20 -20 -20 -20 -20 -20 -20 -20 -20 -20 -20 -20 -20 -20 -20 -20 -15 3 4 -17 1 -20 -20 -20 -20 3 -1 -2 -5 -8 9 8 3 7 3 9 10 7 -8 10 6 13 -7
-20 -20 -20 -20 -20 -20 -20 -20 -20 -20 -20 -20 -20 -20 -20 -20 -10 -8 -3 -7 -2 -18 -20 -19 -17 -3 -5 4 1 7 2 -3 4 6 -5 3 -14 -8 22 19 2 -9 -5
-20 -20 -20 -20 -20 -20 -20 -20 -20 -20 -20 -20 -20 -20 -20 -20 -20 -20 -20 -20 -20 -20 -9 4 -12 -19 -2 -13 5 1 -20 -2 7 -3 1 1 -9 17 17 14 11 20 26
-20 -20 -20 -20 -20 -20 -20 -20 -20 -20 -20 -20 -20 -20 -20 -20 -20 -20 -20 -20 -20 -19 1 -0 -0 4 8 -4 -14 -12 4 7 10 9 9 6 5 -3 7 18 8 16 -12
-20 -20 -20 -20 -20 -20 -20 -20 -20 -20 -20 -20 -20 -20 -20 -20 -20 -20 -20 -20 -20 8 12 -2 -14 -20 -20 -20 -19 -4 1 2 -4 3 4 3 -8 -16 -10 13 -2 6 -20
-20 -20 -20 -20 -20 -20 -20 -20 -20 -20 -20 -20 -20 -20 -20 -20 -20 -20 -20 -20 -20 5 -8 -20 -20 -20 -20 -20 -20 -17 -12 -8 1 -6 -4 -2 -10 -15 -17 -1 3 0 -17
-20 -20 -20 -20 -20 -20 -20 -20 -20 -20 -20 -20 -20 -20 -20 -20 -20 -20 -20 -20 -20 -15 -20 -20 -20 -20 -20 -20 -20 -20 -13 5 -8 -15 -15 -15 -9 -8 -17 -14 -13 -17 -15
-20 -20 -20 -20 -20 -20 -20 -20 -20 -20 -20 -20 -20 -20 -20 -20 -20 -20 -20 -20 -20 -20 -20 -20 -20 -17 -20 -20 -20 -20 -20 -20 -20 -20 -20 -20 -16 -16 -18 -17 -17 -20 -20
-20 -20 -20 -20 -20 -20 -20 -20 -20 -20 -20 -20 -20 -20 -20 -20 -20 -20 -20 -20 -20 -20 -20 -20 -20 -7 -9 -19 -20 -20 -20 -20 -20 -20 -20 -20 -19 -20 -20 -20 -19 -20 -20
-20 -20 -20 -20 -20 -20 -20 -20 -20 -20 -20 -20 -20 -20 -20 -20 -20 -20 -20 -20 -20 -20 -20 -20 -20 -20 -17 -10 -19 -20 -20 -20 -20 -20 -20 -20 -20 -20 -20 -20 -16 -20 -16
-20 -20 -20 -20 -20 -20 -20 -20 -20 -20 -20 -20 -20 -20 -20 -20 -20 -20 -20 -20 -20 -20 -20 -20 -20 -20 -20 -20 -20 -20 -20 -20 -20 -20 -20 -20 -20 -20 -20 -20 -20 -20 -20
-20 -20 -20 -20 -20 -20 -20 -20 -20 -20 -20 -20 -20 -20 -20 -20 -20 -20 -20 -20 -20 -20 -20 -20 -20 -20 -20 -20 -20 -20 -20 -20 -20 -20 -20 -20 -20 -20 -20 -20 -20 -20 -20
-20 -20 -20 -20 -20 -20 -20 -20 -20 -20 -20 -20 -20 -20 -20 -20 -20 -20 -20 -20 -20 -20 -20 -20 -20 -20 -20 -20 -20 -20 -20 -20 -20 -18 -20 -20 -20 -20 -20 -20 -20 -20 -20
-20 -20 -20 -20 -20 -20 -20 -20 -20 -20 -20 -20 -20 -20 -20 -20 -20 -20 -20 -20 -20 -20 -20 -20 -20 -20 -20 -20 -20 -20 -20 -20 -20 -20 -20 -20 -20 -20 -20 -20 -20 -20 -20
-20 -20 -20 -20 -20 -20 -20 -20 -20 -20 -20 -20 -20 -20 -20 -20 -20 -20 -20 -20 -20 -20 -20 -20 -20 -20 -20 -20 -20 -20 -20 -20 -20 -20 -20 -20 -20 -20 -20 -20 -20 -20 -20
-20 -20 -20 -20 -20 -20 -20 -20 -20 -20 -20 -20 -20 -20 -20 -20 -20 -20 -20 -20 -20 -20 -20 -20 -20 -20 -20 -20 -20 -20 -20 -20 -20 -20 -20 -20 -20 -20 -20 -20 -20 -20 -20
Wind_Speed
3 3 4 4 4 5 5 5 5 5 5 5 4 5 6 7 8 7 10 9 8 8 6 7 9 6 4 4 4 4 4 4 7 8 6 8 8 9 9 8 7 7 6
3 4 4 5 5 6 6 6 5 6 5 4 5 5 7 8 8 9 11 9 9 8 9 9 7 7 7 6 4 7 5 5 4 10 7 4 6 7 9 8 6 6 6
4 4 5 5 6 6 6 6 6 6 5 5 4 5 8 9 9 9 9 8 8 8 7 7 7 8 8 8 7 7 6 6 4 6 5 2 5 3 4 4 5 4 5
4 4 5 6 5 6 5 6 6 5 5 5 5 6 9 10 10 10 8 8 8 7 8 8 8 9 11 7 7 8 6 4 6 6 5 4 2 4 2 4 6 5 6
4 4 5 5 5 6 7 7 7 6 6 5 7 8 9 9 8 14 8 8 8 8 8 9 9 14 19 15 9 7 5 5 5 6 4 1 3 2 3 3 5 6 3
4 4 4 5 6 6 7 7 8 7 6 6 8 8 9 8 18 23 16 9 9 9 9 9 10 13 13 18 20 14 10 4 4 2 2 4 5 3 3 3 3 3 2
5 5 5 6 6 7 7 8 7 7 7 7 8 9 10 9 20 23 21 9 9 9 10 10 10 9 15 10 13 13 10 10 9 5 7 7 3 4 2 3 2 2 3
5 5 5 5 6 7 7 7 7 5 6 7 8 9 9 8 20 23 21 9 8 10 10 10 10 11 12 12 9 9 8 7 5 5 7 8 7 6 6 3 2 3 4
5 6 5 5 6 7 7 7 5 5 6 7 8 9 9 10 22 23 17 10 10 12 10 10 11 12 18 18 9 9 9 6 6 9 11 14 14 12 7 3 2 2 2
5 5 4 5 6 6 5 6 4 4 7 7 9 9 13 10 19 23 19 8 11 10 10 12 17 18 20 18 9 8 9 8 8 7 3 5 4 4 6 5 2 4 1
5 4 4 5 5 4 4 4 5 6 8 7 8 8 10 12 13 24 24 10 9 9 9 9 9 22 21 19 17 9 9 8 7 5 2 3 3 4 3 3 3 2 1
5 4 4 4 3 4 5 5 5 7 8 8 9 9 8 10 19 21 24 23 20 9 9 8 10 22 21 20 14 20 17 9 6 5 4 4 3 3 2 2 3 3 2
4 3 3 3 3 4 4 5 4 6 7 8 8 9 10 10 10 22 22 23 21 11 9 15 21 21 20 14 20 21 13 8 6 6 5 3 2 2 3 2 4 5 5
3 2 1 3 4 4 3 3 4 4 6 6 7 8 8 9 10 10 9 11 17 12 12 11 12 13 11 11 11 12 9 8 6 6 5 5 4 3 4 2 2 2 4
2 1 2 3 4 4 4 2 4 4 4 6 5 5 7 10 12 18 16 11 10 9 9 8 10 11 11 11 11 10 9 9 9 7 7 6 6 6 6 3 3 4 5
3 2 2 3 3 3 3 4 6 7 11 13 15 8 3 15 21 23 22 19 22 18 8 9 9 9 9 10 10 10 9 11 9 8 7 7 7 6 6 5 5 6 6
4 2 2 3 3 3 3 3 4 7 9 12 16 17 18 18 20 23 22 17 23 16 9 9 9 9 9 9 9 8 9 9 9 8 8 8 7 7 7 7 6 7 7
4 4 3 2 2 3 2 2 2 3 5 6 10 14 17 17 20 22 23 14 10 13 9 8 9 9 9 9 9 9 9 9 8 8 8 8 8 7 7 7 7 7 7
3 2 2 2 2 3 3 3 3 4 4 4 6 6 10 16 16 17 18 8 8 9 9 9 9 9 9 9 9 9 9 8 8 7 7 7 8 6 7 6 7 10 9
3 4 3 2 3 3 3 3 3 4 4 4 5 5 7 6 8 9 8 8 8 7 8 8 9 8 9 9 9 9 9 9 9 7 7 7 7 8 7 7 7 8 8
2 3 3 3 3 3 3 3 3 3 3 3 3 3 6 5 6 6 7 7 8 8 8 8 8 8 8 8 9 9 8 8 8 8 7 6 7 7 7 7 7 7 7
2 2 2 2 2 3 3 3 3 3 3 3 3 3 6 4 4 5 5 6 5 6 6 7 6 7 7 8 8 8 8 8 8 8 7 6 6 7 6 6 7 7 7
2 2 2 2 2 2 2 2 2 3 3 3 3 4 3 3 4 4 5 5 5 5 6 6 7 8 8 7 7 7 7 8 7 7 6 6 6 6 7 7 7 7 7
1 1 1 2 2 2 2 2 3 3 3 3 4 3 3 3 4 5 4 4 5 5 4 5 6 8 9 9 8 7 6 7 6 6 7 5 6 6 6 6 7 8 8
1 1 1 1 0 1 3 3 3 3 3 3 3 3 3 3 3 4 4 4 4 5 6 6 5 8 10 12 12 13 12 12 9 7 5 6 7 8 6 6 6 7 8
0 0 1 1 1 1 1 2 3 3 4 3 3 3 3 4 3 3 3 4 4 4 6 5 7 9 11 9 12 14 13 13 10 10 5 5 5 5 5 6 7 6 7
Wind_Direction
80 68 50 19 9 7 355 339 344 323 330 331 345 347 333 323 322 332 342 336 324 318 316 332 325 300 291 289 284 276 270 270 284 297 299 305 304 319 312 305 312 306 312
76 65 40 19 7 2 345 345 341 332 334 343 359 354 336 321 325 326 328 330 323 317 317 325 308 319 301 288 278 280 257 264 266 288 299 300 304 310 294 296 318 323 314
73 64 32 15 5 353 341 338 344 345 354 14 7 354 336 329 320 320 318 317 318 310 310 306 307 312 307 292 282 274 266 276 277 283 289 283 314 301 316 312 319 329 331
70 57 30 15 3 345 348 350 357 0 18 5 357 343 338 329 316 316 327 327 316 317 308 310 313 311 294 313 294 284 271 254 282 274 273 281 299 287 280 317 339 337 321
72 46 20 20 22 3 7 5 4 17 15 9 353 345 339 330 331 337 343 332 319 315 318 322 323 317 334 327 317 305 274 263 276 267 265 262 296 315 323 314 307 309 282
78 53 26 28 27 7 8 10 17 13 5 354 346 342 336 340 334 339 355 340 326 325 328 326 323 324 315 325 320 317 310 271 264 242 279 266 268 244 265 286 311 335 324
71 54 44 29 23 13 8 11 11 357 343 340 342 341 332 327 346 340 357 343 331 328 328 323 328 327 325 304 319 322 310 292 263 253 261 254 246 218 230 295 281 305 314
67 59 40 30 25 22 14 6 358 346 337 335 335 336 331 333 346 346 358 340 341 337 334 333 320 324 313 336 331 320 313 299 271 244 234 243 235 244 226 253 293 306 287
68 55 34 37 40 25 16 358 343 341 336 338 343 333 333 342 345 354 1 344 343 341 338 334 337 328 338 345 338 327 320 312 293 282 262 244 242 236 220 222 232 254 273
76 64 52 56 52 35 11 350 332 329 335 339 342 344 341 344 345 1 3 347 348 344 342 344 342 341 350 353 348 329 328 322 318 314 281 227 231 221 208 203 218 224 328
103 101 73 62 63 37 8 348 334 341 334 328 333 342 346 351 350 2 4 360 355 342 342 337 338 348 355 358 358 348 345 327 327 334 10 104 140 160 179 217 207 218 272
105 92 74 59 45 28 7 344 340 340 339 340 351 353 353 356 354 2 5 7 1 348 342 337 338 354 358 359 360 360 0 354 357 3 20 45 71 100 105 95 111 118 82
111 106 81 35 22 358 353 340 343 344 344 343 357 357 350 355 353 360 360 4 4 354 349 356 357 355 357 358 359 5 4 3 360 9 13 29 44 68 91 69 75 84 78
130 120 56 18 360 351 337 339 344 339 337 346 358 1 350 355 353 356 0 358 359 355 352 352 348 354 2 2 2 4 2 358 360 7 12 25 40 51 58 45 79 90 83
135 124 27 13 355 341 343 344 341 315 330 350 338 355 356 360 359 6 10 4 4 350 350 357 3 4 3 1 0 0 359 1 9 6 18 27 37 47 50 37 38 62 76
92 59 31 14 358 351 359 354 358 8 11 12 13 12 339 10 8 12 17 16 16 12 12 5 3 2 2 355 355 351 357 358 0 6 21 29 34 39 47 46 54 57 67
103 86 42 25 11 2 11 21 356 338 351 8 11 16 19 17 13 18 18 17 23 20 22 8 2 359 354 352 353 352 350 352 353 11 21 25 27 39 39 44 45 56 57
89 70 65 35 25 18 15 358 343 348 343 347 354 7 13 18 17 19 18 16 14 18 17 6 359 355 353 352 349 352 350 357 6 6 16 24 27 32 41 42 45 55 58
88 83 62 45 34 31 25 14 2 353 349 349 350 354 358 7 15 17 21 27 11 8 3 3 359 354 352 350 350 350 352 360 5 6 9 18 29 35 47 55 61 57 62
62 69 65 47 31 28 24 17 4 358 354 355 1 353 345 0 13 5 11 9 10 8 359 358 356 355 352 350 350 353 356 4 5 7 12 11 27 45 47 49 57 64 61
75 68 68 53 39 29 23 18 1 357 345 351 343 335 352 16 0 1 360 6 1 357 358 352 350 353 355 351 353 355 359 359 2 0 5 18 26 41 43 53 67 61 72
88 71 57 48 31 27 15 18 5 1 355 346 333 334 355 9 5 0 357 357 345 352 349 347 348 352 352 350 348 350 353 359 358 354 357 11 27 39 36 52 65 64 67
103 89 54 37 18 357 10 12 350 339 339 340 337 338 346 355 349 352 350 339 349 349 353 355 350 355 354 352 351 350 348 347 338 337 348 16 31 38 55 60 53 56 59
109 113 73 61 32 4 353 331 328 339 338 330 330 330 335 339 336 333 338 337 339 346 345 1 355 353 349 355 355 355 352 343 338 347 3 26 35 34 50 60 58 60 73
65 116 114 159 46 339 333 335 337 323 316 327 325 327 326 332 341 341 330 336 335 344 349 351 358 350 355 355 356 356 353 359 6 359 14 28 49 43 44 54 56 61 60
204 131 134 108 82 333 321 325 319 318 321 326 325 320 314 324 321 321 327 334 343 338 343 350 354 0 358 355 355 355 358 4 10 16 22 43 50 45 48 56 54 57 64